TimeHST,TemperatureF,Dew PointF,Humidity,Sea Level PressureIn,VisibilityMPH,Wind Direction,Wind SpeedMPH,Gust SpeedMPH,PrecipitationIn,Events,Conditions,WindDirDegrees,DateUTC
12:57 AM,70.7,61.0,71,30.13,10.0,East,18.4,26.5,N/A,,Partly Cloudy,80,2013-02-17 10:57:00
1:57 AM,70.7,60.1,69,30.13,10.0,ENE,13.8,24.2,N/A,,Partly Cloudy,60,2013-02-17 11:57:00
2:57 AM,70.9,62.1,74,30.11,10.0,ENE,15.0,26.5,N/A,,Scattered Clouds,70,2013-02-17 12:57:00
3:57 AM,73.4,60.1,63,30.10,10.0,ENE,13.8,25.3,N/A,,Mostly Cloudy,70,2013-02-17 13:57:00
4:57 AM,73.4,59.0,61,30.09,10.0,ENE,15.0,23.0,N/A,,Scattered Clouds,70,2013-02-17 14:57:00
5:57 AM,71.4,60.1,67,30.11,10.0,ENE,13.8,24.2,0.00,,Scattered Clouds,60,2013-02-17 15:57:00
6:57 AM,71.4,63.0,75,30.14,10.0,ENE,16.1,27.6,N/A,,Mostly Cloudy,70,2013-02-17 16:57:00
7:57 AM,71.4,62.1,72,30.16,10.0,ENE,9.2,18.4,N/A,,Overcast,70,2013-02-17 17:57:00
9:57 AM,73.4,62.1,68,30.17,10.0,ENE,16.1,33.4,0.00,,Clear,70,2013-02-17 19:57:00
10:57 AM,75.2,66.0,73,30.18,10.0,ENE,13.8,27.6,N/A,,Clear,70,2013-02-17 20:57:00
11:57 AM,77.0,61.0,58,30.16,10.0,ENE,18.4,29.9,N/A,,Partly Cloudy,70,2013-02-17 21:57:00
12:57 PM,78.8,60.1,53,30.13,10.0,East,17.3,31.1,N/A,,Clear,80,2013-02-17 22:57:00
1:57 PM,77.0,61.0,58,30.12,10.0,ENE,18.4,26.5,N/A,,Partly Cloudy,70,2013-02-17 23:57:00
2:57 PM,78.8,62.1,56,30.10,10.0,ENE,13.8,24.2,N/A,,Mostly Cloudy,70,2013-02-18 00:57:00
3:57 PM,78.8,62.1,56,30.10,10.0,ENE,10.4,26.5,N/A,,Scattered Clouds,70,2013-02-18 01:57:00
4:57 PM,77.0,60.1,56,30.11,10.0,ENE,13.8,27.6,N/A,,Scattered Clouds,70,2013-02-18 02:57:00
5:57 PM,77.0,59.0,54,30.12,10.0,East,13.8,24.2,N/A,,Scattered Clouds,80,2013-02-18 03:57:00
6:57 PM,75.2,60.1,59,30.13,10.0,ENE,15.0,27.6,N/A,,Mostly Cloudy,70,2013-02-18 04:57:00
7:57 PM,73.4,60.1,63,30.16,10.0,East,17.3,28.8,N/A,,Mostly Cloudy,80,2013-02-18 05:57:00
8:57 PM,73.4,59.0,61,30.18,10.0,ENE,21.9,28.8,N/A,,Mostly Cloudy,70,2013-02-18 06:57:00
9:57 PM,73.4,62.1,68,30.19,10.0,ENE,18.4,25.3,N/A,,Mostly Cloudy,60,2013-02-18 07:57:00
10:57 PM,71.6,61.0,69,30.18,10.0,East,13.8,31.1,N/A,,Mostly Cloudy,80,2013-02-18 08:57:00
11:57 PM,71.6,60.1,67,30.17,10.0,ENE,16.1,25.3,N/A,,Mostly Cloudy,60,2013-02-18 09:57:00